Location: Albuquerque Trailhead
(34.7934°N, 106.3736°W)
Time: 22:59:37
(UTC+00:00)

BlueWalker 3 - Visible Passes

Search period start: 06 December 2022 00:00
Search period end: 16 December 2022 00:00
Orbit: 501 x 518 km, 53.2° (Epoch: 06 December)

Date Brightness Start Highest point End Pass type
(mag) Time Alt. Az. Time Alt. Az. Time Alt. Az.
08 Dec 4.3 01:42:38 10° NNW 01:43:20 13° N 01:43:20 13° N visible
09 Dec 3.7 01:24:09 10° NNW 01:26:08 20° N 01:26:08 20° N visible
10 Dec 3.2 01:05:41 10° NNW 01:08:53 24° NE 01:09:06 23° NE visible
11 Dec 3.1 00:47:13 10° NNW 00:50:29 25° NE 00:52:21 18° ENE visible
11 Dec 4.4 02:25:38 10° WNW 02:27:15 21° WNW 02:27:15 21° WNW visible
12 Dec 3.0 00:28:44 10° NNW 00:32:05 26° NE 00:35:24 10° E visible
12 Dec 3.5 02:07:15 10° WNW 02:10:44 32° SW 02:10:56 32° SW visible
13 Dec 3.8 01:48:53 10° WNW 01:52:18 30° SW 01:55:15 12° S visible
14 Dec 4.1 01:30:30 10° WNW 01:33:50 28° SW 01:37:09 10° S visible
15 Dec 4.3 01:12:08 10° WNW 01:15:23 25° SW 01:18:36 10° S visible
